Location: Unspecified
(0.0000°N, 0.0000°E)
Time: 01:35:52
(UTC+00:00)

Vanguard 3 - All Passes

Search period start: 29 April 2017 00:00
Search period end: 09 May 2017 00:00
Orbit: 508 x 3266 km, 33.4° (Epoch: 27 April)

Date Brightness Start Highest point End Pass type
(mag) Time Alt. Az. Time Alt. Az. Time Alt. Az.
29 Apr - 05:20:19 10° SW 05:24:44 77° SE 05:32:00 10° ENE visible
29 Apr - 07:32:44 10° WNW 07:38:10 25° NNW 07:46:25 10° NNE daylight
29 Apr - 09:50:34 10° NNW 09:55:39 13° N 10:01:47 10° NNE daylight
29 Apr - 12:07:24 10° NNW 12:17:06 17° NNE 12:28:07 10° NE daylight
29 Apr - 14:21:20 10° NNW 14:38:20 36° NNE 14:54:00 10° E daylight
29 Apr - 16:36:40 10° NW 16:56:47 77° NE 17:10:45 10° ESE daylight
29 Apr - 18:56:13 10° WNW 19:12:07 43° SW 19:22:10 10° SSE visible
30 Apr - 04:08:14 10° SSW 04:11:37 26° SE 04:16:04 10° E visible
30 Apr - 06:18:40 10° W 06:23:25 37° NNW 06:31:07 10° NE daylight
30 Apr - 08:34:21 10° NW 08:38:53 14° N 08:44:39 10° NNE daylight
30 Apr - 10:52:48 10° NNW 10:58:33 13° N 11:05:10 10° NNE daylight
30 Apr - 13:06:20 10° NNW 13:20:10 25° NNE 13:34:52 10° ENE daylight
30 Apr - 15:20:20 10° NW 15:39:45 56° NNE 15:55:36 10° ESE daylight
30 Apr - 17:37:24 10° WNW 17:56:40 68° SW 18:09:12 10° SE daylight
30 Apr - 20:01:10 10° W 20:11:14 21° SW 20:18:28 10° S visible
01 May - 05:05:24 10° WSW 05:09:33 76° NW 05:16:04 10° NE visible
01 May - 07:18:50 10° WNW 07:23:13 18° NNW 07:29:12 10° NNE daylight
01 May - 09:38:22 10° N 09:40:45 11° N 09:43:21 10° NNE daylight
01 May - 11:52:02 10° NNW 12:01:47 18° NNE 12:13:03 10° NE daylight
01 May - 14:04:54 10° NNW 14:22:11 40° NNE 14:38:50 10° E daylight
01 May - 16:19:59 10° NW 16:40:21 86° NE 16:55:16 10° SE daylight
01 May - 18:40:03 10° W 18:56:02 38° SW 19:06:38 10° SSE visible
02 May - 03:52:54 10° SSW 03:56:23 36° SE 04:00:53 10° ENE visible
02 May - 06:04:18 10° W 06:08:26 26° NNW 06:14:31 10° NNE daylight
02 May - 08:22:33 10° NNW 08:24:02 10° N 08:25:37 10° N daylight
02 May - 10:38:43 10° N 10:43:32 12° NNE 10:49:01 10° NNE daylight
02 May - 12:50:17 10° NNW 13:04:18 28° NNE 13:19:48 10° E daylight
02 May - 15:03:46 10° NW 15:23:19 63° NE 15:40:09 10° ESE daylight
02 May - 17:20:56 10° WNW 17:40:17 61° SW 17:53:38 10° SE daylight
02 May - 19:45:44 10° WSW 19:55:34 19° SW 20:02:53 10° S visible
03 May - 02:42:01 10° SSE 02:43:10 11° SE 02:44:21 10° SE visible
03 May - 04:50:36 10° WSW 04:54:29 51° NNW 05:00:07 10° NE visible
03 May - 07:05:42 10° NW 07:08:20 12° NNW 07:11:27 10° N daylight
03 May - 11:36:31 10° NNW 11:46:20 19° NNE 11:58:01 10° ENE daylight
03 May - 13:48:34 10° NW 14:05:52 45° NNE 14:23:26 10° E daylight
03 May - 16:03:28 10° NW 16:23:49 86° SW 16:39:39 10° SE daylight
03 May - 18:24:01 10° W 18:39:55 35° SW 18:51:01 10° SSE visible
04 May - 03:37:39 10° SW 03:41:14 53° SE 03:45:38 10° ENE visible
04 May - 05:50:16 10° WNW 05:53:30 18° NNW 05:57:45 10° NNE daylight
04 May - 10:24:21 10° N 10:28:31 12° NNE 10:33:11 10° NE daylight
04 May - 12:34:16 10° NNW 12:48:19 31° NNE 13:04:33 10° E daylight
04 May - 14:47:21 10° NW 15:06:44 70° NE 15:24:30 10° ESE daylight
04 May - 17:04:38 10° WNW 17:23:50 54° SW 17:37:57 10° SE daylight
04 May - 19:30:26 10° WSW 19:39:57 18° SSW 19:47:18 10° S visible
05 May - 02:25:34 10° S 02:28:03 16° SSE 02:30:31 10° ESE night (unlit)
05 May - 04:35:58 10° W 04:39:28 32° NNW 04:44:07 10° NE visible
05 May - 11:20:54 10° NNW 11:30:48 20° NNE 11:42:55 10° ENE daylight
05 May - 13:32:20 10° NW 13:49:26 50° NE 14:07:49 10° ESE daylight
05 May - 15:47:07 10° WNW 16:07:10 78° SW 16:23:52 10° SE daylight
05 May - 18:08:10 10° W 18:23:50 31° SW 18:35:20 10° SSE visible
06 May - 03:22:30 10° SW 03:26:09 84° SE 03:30:20 10° NE visible
06 May - 05:37:07 10° NW 05:38:37 11° NNW 05:40:17 10° N daylight
06 May - 10:09:35 10° N 10:13:25 11° NNE 10:17:43 10° NE daylight
06 May - 12:18:18 10° NNW 12:32:12 34° NNE 12:49:05 10° E daylight
06 May - 14:31:05 10° NW 14:50:04 78° NE 15:08:40 10° ESE daylight
06 May - 16:48:31 10° WNW 17:07:23 49° SW 17:22:08 10° SE daylight
06 May - 19:15:15 10° WSW 19:24:25 17° SSW 19:31:42 10° S visible
07 May - 02:09:39 10° SSW 02:12:58 25° SSE 02:16:04 10° E night (unlit)
07 May - 04:21:33 10° W 04:24:29 21° NNW 04:28:01 10° NNE visible
07 May - 11:05:14 10° NNW 11:15:09 21° NNE 11:27:43 10° ENE daylight
07 May - 13:16:14 10° NW 13:32:54 56° NE 13:52:00 10° ESE daylight
07 May - 15:30:56 10° WNW 15:50:30 71° SW 16:07:56 10° SE daylight
07 May - 17:52:30 10° W 18:07:49 29° SW 18:19:36 10° SSE visible
08 May - 00:58:06 10° S 00:59:12 11° SSE 01:00:13 10° SE night (unlit)
08 May - 03:07:25 10° WSW 03:11:06 60° NW 03:14:58 10° NE visible
08 May - 09:54:24 10° N 09:58:15 12° NNE 10:02:37 10° NE daylight
08 May - 12:02:23 10° NNW 12:15:59 37° NE 12:33:25 10° E daylight
08 May - 14:14:58 10° NW 14:33:21 85° NE 14:52:39 10° SE daylight
08 May - 16:32:36 10° WNW 16:50:58 44° SW 17:06:13 10° SSE daylight
08 May - 19:00:09 10° WSW 19:08:58 16° SSW 19:16:10 10° S visible
